Weather History for Albany, GA

Change the Weather History Date:

Saturday, May 12, 2012

  Actual Average Record
Temperature  
Mean Temperature 75 °F 74 °F  
Max Temperature 84 °F 87 °F 100 °F (1962)
Min Temperature 66 °F 61 °F 42 °F (1969)
Degree Days  
Heating Degree Days 0 0  
Month to date heating degree days 0  
Since 1 July heating degree days 1834  
Cooling Degree Days 10 9  
Month to date cooling degree days 87  
Year to date cooling degree days 227  
Growing Degree Days 25 (Base 50)    
Moisture  
Dew Point 58 °F    
Average Humidity 57    
Maximum Humidity 81    
Minimum Humidity 38    
Precipitation  
Precipitation 0.00 in 0.08 in 0.30 in (2007)
Month to date precipitation 0.93  
Year to date precipitation 18.60  
Sea Level Pressure  
Sea Level Pressure 30.18 in    
Wind  
Wind Speed 8 mph (SE)    
Max Wind Speed 14 mph    
Max Gust Speed 18 mph    
Visibility 10 miles    
Events Rain    
T = Trace of Precipitation, MM = Missing Value Source: NWS Daily Summary

Daily Weather History Graph

Daily Weather History Graph

Search for Another Location

Airport:

Trip Planner

Search our weather history database for the weather conditions in past years. The results will help you decide how hot, cold, wet, or windy it might be!

Date:

Astronomy

May. 12, 2012 Rise Set
Actual Time 6:42 AM EDT 8:24 PM EDT
Civil Twilight 6:15 AM EDT 8:51 PM EDT
Nautical Twilight 5:43 AM EDT 9:23 PM EDT
Astronomical Twilight 5:10 AM EDT 9:56 PM EDT
Moon 1:45 AM EDT (5/12) 1:11 PM EDT (5/12)
Length of Visible Light 14h 35m
Length of Day
13h 42m
Waning Gibbous, 53% of the Moon is Illuminated
May 12
Waning Gibbous
May 12
Last Quarter
May 20
New
May 28
First Quarter
Jun 4
Full

Hourly Weather History & Observations

Time (EDT) Temp. Heat Index Dew Point Humidity Pressure Visibility Wind Dir Wind Speed Gust Speed Precip Events Conditions
12:53 AM 71.1 °F - 57.9 °F 63% 30.14 in 10.0 mi SE 9.2 mph - N/A   Clear
1:53 AM 72.0 °F - 57.0 °F 59% 30.14 in 10.0 mi SE 10.4 mph - N/A   Clear
2:53 AM 71.1 °F - 55.9 °F 59% 30.12 in 10.0 mi SE 10.4 mph - N/A   Clear
3:53 AM 69.1 °F - 57.0 °F 65% 30.14 in 10.0 mi SE 6.9 mph - N/A   Clear
4:53 AM 68.0 °F - 57.0 °F 68% 30.14 in 10.0 mi SE 4.6 mph - N/A   Clear
5:53 AM 66.9 °F - 57.9 °F 73% 30.17 in 10.0 mi ESE 3.5 mph - N/A   Clear
6:53 AM 66.9 °F - 57.0 °F 70% 30.20 in 10.0 mi East 4.6 mph - N/A   Clear
7:53 AM 68.0 °F - 57.9 °F 70% 30.25 in 10.0 mi East 3.5 mph - N/A   Mostly Cloudy
8:53 AM 68.0 °F - 59.0 °F 73% 30.28 in 10.0 mi Calm Calm - 0.00 in Rain Light Rain
9:53 AM 66.9 °F - 61.0 °F 81% 30.27 in 10.0 mi Calm Calm - 0.00 in Rain Light Rain
10:53 AM 70.0 °F - 62.1 °F 76% 30.27 in 10.0 mi SE 3.5 mph - 0.00 in   Overcast
11:53 AM 75.9 °F - 62.1 °F 62% 30.26 in 10.0 mi ESE 10.4 mph - N/A   Partly Cloudy
12:53 PM 81.0 °F 81.1 °F 57.9 °F 45% 30.24 in 10.0 mi SE 13.8 mph - N/A   Clear
1:53 PM 82.0 °F 81.4 °F 55.0 °F 39% 30.22 in 10.0 mi SE 9.2 mph 18.4 mph N/A   Mostly Cloudy
2:53 PM 82.9 °F 82.0 °F 55.0 °F 38% 30.19 in 10.0 mi SSE 10.4 mph - N/A   Mostly Cloudy
3:53 PM 82.9 °F 82.1 °F 55.9 °F 39% 30.16 in 10.0 mi SE 12.7 mph - N/A   Scattered Clouds
4:53 PM 82.9 °F 82.6 °F 57.9 °F 42% 30.15 in 10.0 mi ESE 11.5 mph - N/A   Scattered Clouds
5:53 PM 84.0 °F 83.8 °F 59.0 °F 43% 30.13 in 10.0 mi SE 10.4 mph 17.3 mph N/A   Clear
6:53 PM 81.0 °F 81.0 °F 57.0 °F 44% 30.14 in 10.0 mi SE 9.2 mph - N/A   Mostly Cloudy
7:53 PM 80.1 °F 80.6 °F 57.9 °F 47% 30.14 in 10.0 mi ESE 5.8 mph - N/A   Mostly Cloudy
8:53 PM 78.1 °F - 57.9 °F 50% 30.14 in 10.0 mi Calm Calm - N/A   Overcast
9:53 PM 75.9 °F - 57.9 °F 54% 30.15 in 10.0 mi ESE 6.9 mph - N/A   Partly Cloudy
10:53 PM 75.0 °F - 57.9 °F 55% 30.17 in 10.0 mi ESE 11.5 mph - N/A   Clear
11:53 PM 75.0 °F - 57.0 °F 53% 30.18 in 10.0 mi SE 10.4 mph - N/A   Clear